カタログに戻る

STARLINK-4475

運用中通信VLEO
NORAD 53545·PAYLOAD·🇺🇸 United States

打ち上げ Aug 19, 2022 から Cape Canaveral Space Force Station

Loading…

次のパス (今後24時間)

TLE

最新Source: CelesTrak SupGP

元期: Sep 15, 2026, 01:55 UTC

1 53545C 22101U   26258.08034722  .00010382  00000+0  30672-3 0  2589
2 53545  53.1588 279.0055 0001291  85.1141  43.6657 15.34387136    18

AllMySatでSTARLINK-4475をリアルタイム追跡

Download on the App Store